Time,TemperatureF,DewpointF,PressureIn,WindDirection,WindDirectionDegrees,WindSpeedMPH,WindSpeedGustMPH,Humidity,HourlyPrecipIn,Conditions,Clouds,dailyrainin,SolarRadiationWatts/m^2,SoftwareType,DateUTC
2013-12-21 00:03:00,27.2,25.4,29.89,West,267,0.0,0.0,93,0.00,CLR,,0.01,0.0,WeatherDisplay:10.37,2013-12-21 06:03:00,
2013-12-21 00:08:00,27.2,25.4,29.88,West,266,0.0,0.0,93,0.00,CLR,,0.01,0.0,WeatherDisplay:10.37,2013-12-21 06:08:00,
2013-12-21 00:13:00,27.2,25.4,29.88,West,273,0.0,0.0,93,0.00,CLR,,0.01,0.0,WeatherDisplay:10.37,2013-12-21 06:13:00,
2013-12-21 00:18:00,27.2,25.4,29.88,WNW,299,0.0,0.0,93,0.00,CLR,,0.01,0.0,WeatherDisplay:10.37,2013-12-21 06:18:00,
2013-12-21 00:23:00,27.2,25.4,29.87,WNW,288,0.0,0.0,93,0.00,CLR,,0.01,0.0,WeatherDisplay:10.37,2013-12-21 06:23:00,
2013-12-21 00:29:00,27.1,25.3,29.87,West,267,0.0,0.0,93,0.00,CLR,,0.01,0.0,WeatherDisplay:10.37,2013-12-21 06:29:00,
2013-12-21 00:33:00,27.1,25.3,29.88,West,268,0.0,0.0,93,0.00,CLR,,0.01,0.0,WeatherDisplay:10.37,2013-12-21 06:33:00,
2013-12-21 00:38:00,27.1,25.3,29.89,West,268,0.0,0.0,93,0.00,CLR,,0.01,0.0,WeatherDisplay:10.37,2013-12-21 06:38:00,
2013-12-21 00:43:00,27.1,25.3,29.88,West,274,0.0,0.0,93,0.00,CLR,,0.01,0.0,WeatherDisplay:10.37,2013-12-21 06:43:00,
2013-12-21 00:48:00,27.1,25.3,29.88,West,276,0.0,0.0,93,0.00,CLR,,0.01,0.0,WeatherDisplay:10.37,2013-12-21 06:48:00,
2013-12-21 00:53:00,27.1,25.3,29.88,West,277,0.0,0.0,93,0.00,CLR,,0.01,0.0,WeatherDisplay:10.37,2013-12-21 06:53:00,
2013-12-21 00:58:00,27.1,25.3,29.87,West,277,0.0,0.0,93,0.00,CLR,,0.01,0.0,WeatherDisplay:10.37,2013-12-21 06:58:00,
2013-12-21 01:03:00,27.1,25.3,29.88,West,281,0.0,0.0,93,0.00,CLR,,0.01,0.0,WeatherDisplay:10.37,2013-12-21 07:03:00,
2013-12-21 01:08:00,27.1,25.3,29.89,West,277,0.0,0.0,93,0.00,CLR,,0.01,0.0,WeatherDisplay:10.37,2013-12-21 07:08:00,
2013-12-21 01:13:00,27.1,25.3,29.89,WNW,294,0.0,0.0,93,0.00,CLR,,0.01,0.0,WeatherDisplay:10.37,2013-12-21 07:13:00,
2013-12-21 01:18:00,27.1,25.3,29.89,West,260,0.0,0.0,93,0.00,CLR,,0.01,0.0,WeatherDisplay:10.37,2013-12-21 07:18:00,
2013-12-21 01:23:00,27.0,25.2,29.90,West,269,0.0,0.0,93,0.00,CLR,,0.01,0.0,WeatherDisplay:10.37,2013-12-21 07:23:00,
2013-12-21 01:28:00,27.0,25.2,29.90,West,275,0.0,0.0,93,0.00,CLR,,0.01,0.0,WeatherDisplay:10.37,2013-12-21 07:28:00,
2013-12-21 01:33:00,27.1,25.3,29.90,WNW,296,0.0,0.0,93,0.00,CLR,,0.01,0.0,WeatherDisplay:10.37,2013-12-21 07:33:00,
2013-12-21 01:38:00,27.0,25.2,29.89,WNW,286,0.0,0.0,93,0.00,CLR,,0.01,0.0,WeatherDisplay:10.37,2013-12-21 07:38:00,
2013-12-21 01:43:00,27.0,25.2,29.89,West,280,0.0,0.0,93,0.00,CLR,,0.01,0.0,WeatherDisplay:10.37,2013-12-21 07:43:00,
2013-12-21 01:48:00,27.0,25.2,29.89,West,274,0.0,0.0,93,0.00,CLR,,0.01,0.0,WeatherDisplay:10.37,2013-12-21 07:48:00,
2013-12-21 01:53:00,27.0,25.2,29.89,NW,322,0.0,0.0,93,0.00,CLR,,0.01,0.0,WeatherDisplay:10.37,2013-12-21 07:53:00,
2013-12-21 01:58:00,27.0,25.2,29.88,WNW,293,0.0,0.0,93,0.00,CLR,,0.01,0.0,WeatherDisplay:10.37,2013-12-21 07:58:00,
2013-12-21 02:03:00,27.0,25.2,29.88,WNW,293,0.0,0.0,93,0.00,CLR,,0.01,0.0,WeatherDisplay:10.37,2013-12-21 08:03:00,
2013-12-21 02:08:00,26.9,25.1,29.87,WNW,294,0.0,0.0,93,0.00,CLR,,0.01,0.0,WeatherDisplay:10.37,2013-12-21 08:08:00,
2013-12-21 02:13:00,26.9,25.1,29.87,West,273,0.0,0.0,93,0.00,CLR,,0.01,0.0,WeatherDisplay:10.37,2013-12-21 08:13:00,
2013-12-21 02:18:00,26.9,25.1,29.85,WNW,298,0.0,0.0,93,0.00,CLR,,0.01,0.0,WeatherDisplay:10.37,2013-12-21 08:18:00,
2013-12-21 02:23:00,26.9,25.1,29.85,NNW,336,0.0,0.0,93,0.00,CLR,,0.01,0.0,WeatherDisplay:10.37,2013-12-21 08:23:00,
2013-12-21 02:28:00,26.8,25.0,29.84,NNW,331,0.0,0.0,93,0.00,CLR,,0.01,0.0,WeatherDisplay:10.37,2013-12-21 08:28:00,
2013-12-21 02:33:00,26.7,24.9,29.84,NW,315,0.0,0.0,93,0.00,CLR,,0.01,0.0,WeatherDisplay:10.37,2013-12-21 08:33:00,
2013-12-21 02:38:00,26.7,24.9,29.85,NW,315,0.0,0.0,93,0.00,CLR,,0.01,0.0,WeatherDisplay:10.37,2013-12-21 08:38:00,
2013-12-21 02:43:00,26.7,24.9,29.85,WNW,297,0.0,0.0,93,0.00,CLR,,0.01,0.0,WeatherDisplay:10.37,2013-12-21 08:43:00,
2013-12-21 02:48:00,26.7,24.9,29.87,NW,313,0.0,0.0,93,0.00,CLR,,0.01,0.0,WeatherDisplay:10.37,2013-12-21 08:48:00,
2013-12-21 02:54:00,26.7,24.9,29.87,NW,309,0.0,0.0,93,0.00,CLR,,0.01,0.0,WeatherDisplay:10.37,2013-12-21 08:54:00,
2013-12-21 02:59:00,26.7,24.9,29.87,WNW,282,0.0,0.0,93,0.00,CLR,,0.01,0.0,WeatherDisplay:10.37,2013-12-21 08:59:00,
2013-12-21 03:04:00,26.7,24.9,29.87,NW,317,0.0,0.0,93,0.00,CLR,,0.01,0.0,WeatherDisplay:10.37,2013-12-21 09:04:00,
2013-12-21 03:09:00,26.7,24.9,29.85,NW,310,0.0,0.0,93,0.00,CLR,,0.01,0.0,WeatherDisplay:10.37,2013-12-21 09:09:00,
2013-12-21 03:14:00,26.6,24.8,29.84,NNW,335,0.0,0.0,93,0.00,CLR,,0.01,0.0,WeatherDisplay:10.37,2013-12-21 09:14:00,
2013-12-21 03:19:00,26.6,24.8,29.82,NNW,336,0.0,0.0,93,0.00,CLR,,0.01,0.0,WeatherDisplay:10.37,2013-12-21 09:19:00,
2013-12-21 03:24:00,26.6,24.6,29.82,NNW,338,0.0,0.0,92,0.00,CLR,,0.01,0.0,WeatherDisplay:10.37,2013-12-21 09:24:00,
2013-12-21 03:29:00,26.6,24.6,29.82,NNW,343,0.0,0.0,92,0.00,CLR,,0.01,0.0,WeatherDisplay:10.37,2013-12-21 09:29:00,
2013-12-21 03:34:00,26.4,24.4,29.83,NNW,338,0.0,0.0,92,0.00,CLR,,0.01,0.0,WeatherDisplay:10.37,2013-12-21 09:34:00,
2013-12-21 03:39:00,26.4,24.4,29.81,North,349,0.0,0.0,92,0.00,CLR,,0.01,0.0,WeatherDisplay:10.37,2013-12-21 09:39:00,
2013-12-21 03:44:00,26.3,24.3,29.81,NNW,333,0.0,0.0,92,0.00,CLR,,0.01,0.0,WeatherDisplay:10.37,2013-12-21 09:44:00,
2013-12-21 03:49:00,26.4,24.4,29.81,NNE,19,0.0,0.0,92,0.00,CLR,,0.01,0.0,WeatherDisplay:10.37,2013-12-21 09:49:00,
2013-12-21 03:54:00,26.3,24.3,29.80,North,360,0.0,0.0,92,0.00,CLR,,0.01,0.0,WeatherDisplay:10.37,2013-12-21 09:54:00,
2013-12-21 03:59:00,26.3,24.3,29.81,North,350,0.0,0.0,92,0.00,CLR,,0.01,0.0,WeatherDisplay:10.37,2013-12-21 09:59:00,
2013-12-21 04:04:00,26.3,24.3,29.82,NW,325,0.0,0.0,92,0.00,CLR,,0.01,0.0,WeatherDisplay:10.37,2013-12-21 10:04:00,
2013-12-21 04:09:00,26.3,24.3,29.83,NW,319,0.0,0.0,92,0.00,CLR,,0.01,0.0,WeatherDisplay:10.37,2013-12-21 10:09:00,
2013-12-21 04:14:00,26.3,24.3,29.84,NNW,347,0.0,0.0,92,0.00,CLR,,0.01,0.0,WeatherDisplay:10.37,2013-12-21 10:14:00,
2013-12-21 04:19:00,26.3,24.3,29.85,NW,306,0.0,0.0,92,0.00,CLR,,0.01,0.0,WeatherDisplay:10.37,2013-12-21 10:19:00,
2013-12-21 04:24:00,26.3,24.3,29.86,NW,311,0.0,0.0,92,0.00,CLR,,0.01,0.0,WeatherDisplay:10.37,2013-12-21 10:24:00,
2013-12-21 04:29:00,26.3,24.3,29.87,NW,313,0.0,0.0,92,0.00,CLR,,0.01,0.0,WeatherDisplay:10.37,2013-12-21 10:29:00,
2013-12-21 04:34:00,26.2,24.2,29.87,NW,313,0.0,0.0,92,0.00,CLR,,0.01,0.0,WeatherDisplay:10.37,2013-12-21 10:34:00,
2013-12-21 04:39:00,26.2,24.2,29.89,NW,313,0.0,0.0,92,0.00,CLR,,0.01,0.0,WeatherDisplay:10.37,2013-12-21 10:39:00,
2013-12-21 04:44:00,26.2,24.2,29.89,NW,313,0.0,0.0,92,0.00,CLR,,0.01,0.0,WeatherDisplay:10.37,2013-12-21 10:44:00,
2013-12-21 04:49:00,26.2,24.2,29.89,NW,313,0.0,0.0,92,0.00,CLR,,0.01,0.0,WeatherDisplay:10.37,2013-12-21 10:49:00,
2013-12-21 04:54:00,26.3,24.3,29.89,NW,315,0.0,0.0,92,0.00,CLR,,0.01,0.0,WeatherDisplay:10.37,2013-12-21 10:54:00,
2013-12-21 04:59:00,26.2,24.2,29.89,NW,314,0.0,0.0,92,0.00,CLR,,0.01,0.0,WeatherDisplay:10.37,2013-12-21 10:59:00,
2013-12-21 05:04:00,26.2,23.9,29.88,NW,317,0.0,0.0,91,0.00,CLR,,0.01,0.0,WeatherDisplay:10.37,2013-12-21 11:04:00,
2013-12-21 05:09:00,26.2,23.9,29.87,NW,317,0.0,0.0,91,0.00,CLR,,0.01,0.0,WeatherDisplay:10.37,2013-12-21 11:09:00,
2013-12-21 05:14:00,26.2,23.9,29.87,NW,317,0.0,0.0,91,0.00,CLR,,0.01,0.0,WeatherDisplay:10.37,2013-12-21 11:14:00,
2013-12-21 05:19:00,26.2,23.9,29.88,NW,317,0.0,0.0,91,0.00,CLR,,0.01,0.0,WeatherDisplay:10.37,2013-12-21 11:19:00,
2013-12-21 05:24:00,26.2,23.9,29.86,NW,317,0.0,0.0,91,0.00,CLR,,0.01,0.0,WeatherDisplay:10.37,2013-12-21 11:24:00,
2013-12-21 05:29:00,26.2,23.9,29.85,NW,317,0.0,0.0,91,0.00,CLR,,0.01,0.0,WeatherDisplay:10.37,2013-12-21 11:29:00,
2013-12-21 05:34:00,26.2,23.9,29.86,NW,317,0.0,0.0,91,0.00,CLR,,0.01,0.0,WeatherDisplay:10.37,2013-12-21 11:34:00,
2013-12-21 05:39:00,26.2,23.9,29.87,NNW,346,0.0,0.0,91,0.00,CLR,,0.01,0.0,WeatherDisplay:10.37,2013-12-21 11:39:00,
2013-12-21 05:44:00,26.2,23.9,29.87,NNW,346,0.0,0.0,91,0.00,CLR,,0.01,0.0,WeatherDisplay:10.37,2013-12-21 11:44:00,
2013-12-21 05:49:00,26.2,23.9,29.86,North,355,0.0,0.0,91,0.00,CLR,,0.01,0.0,WeatherDisplay:10.37,2013-12-21 11:49:00,
2013-12-21 05:54:00,26.2,23.9,29.87,NNW,341,0.0,0.0,91,0.00,CLR,,0.01,0.0,WeatherDisplay:10.37,2013-12-21 11:54:00,
2013-12-21 05:59:00,26.1,23.8,29.87,NNW,334,0.0,0.0,91,0.00,CLR,,0.01,0.0,WeatherDisplay:10.37,2013-12-21 11:59:00,
2013-12-21 06:04:00,26.1,23.8,29.87,NNW,333,0.0,0.0,91,0.00,CLR,,0.01,0.0,WeatherDisplay:10.37,2013-12-21 12:04:00,
2013-12-21 06:09:00,26.1,23.8,29.88,NW,309,0.0,0.0,91,0.00,CLR,,0.01,0.0,WeatherDisplay:10.37,2013-12-21 12:09:00,
2013-12-21 06:14:00,26.0,23.7,29.87,North,360,0.0,0.0,91,0.00,CLR,,0.01,0.0,WeatherDisplay:10.37,2013-12-21 12:14:00,
2013-12-21 06:19:00,26.0,23.7,29.85,NNW,331,0.0,0.0,91,0.00,CLR,,0.01,0.0,WeatherDisplay:10.37,2013-12-21 12:19:00,
2013-12-21 06:24:00,26.0,23.7,29.84,NNW,340,0.0,0.0,91,0.00,CLR,,0.01,0.0,WeatherDisplay:10.37,2013-12-21 12:24:00,
2013-12-21 06:29:00,25.9,23.6,29.84,NNW,337,0.0,0.0,91,0.00,CLR,,0.01,0.0,WeatherDisplay:10.37,2013-12-21 12:29:00,
2013-12-21 06:34:00,25.9,23.6,29.84,North,360,0.0,0.0,91,0.00,CLR,,0.01,0.0,WeatherDisplay:10.37,2013-12-21 12:34:00,
2013-12-21 06:39:00,25.9,23.6,29.83,NNW,338,0.0,0.0,91,0.00,CLR,,0.01,0.0,WeatherDisplay:10.37,2013-12-21 12:39:00,
2013-12-21 06:44:00,25.8,23.5,29.83,North,355,0.0,0.0,91,0.00,CLR,,0.01,0.0,WeatherDisplay:10.37,2013-12-21 12:44:00,
2013-12-21 06:49:00,25.8,23.5,29.83,NE,34,0.0,0.0,91,0.00,CLR,,0.01,0.0,WeatherDisplay:10.37,2013-12-21 12:49:00,
2013-12-21 06:54:00,25.8,23.5,29.82,North,355,0.0,0.0,91,0.00,CLR,,0.01,0.0,WeatherDisplay:10.37,2013-12-21 12:54:00,
2013-12-21 06:59:00,25.7,23.4,29.83,NNE,14,0.0,0.0,91,0.00,CLR,,0.01,0.0,WeatherDisplay:10.37,2013-12-21 12:59:00,
2013-12-21 07:05:00,25.7,23.4,29.83,NNE,15,0.0,0.0,91,0.00,RA,,0.00,0.0,WeatherDisplay:10.37,2013-12-21 13:05:00,
2013-12-21 07:10:00,25.6,23.3,29.83,NNE,15,0.0,0.0,91,0.00,RA,,0.00,0.0,WeatherDisplay:10.37,2013-12-21 13:10:00,
2013-12-21 07:15:00,25.6,23.3,29.83,NNE,15,0.0,0.0,91,0.00,OVC,,0.00,0.0,WeatherDisplay:10.37,2013-12-21 13:15:00,
2013-12-21 07:20:00,25.6,23.3,29.84,North,0,0.0,0.0,91,0.00,OVC,,0.00,0.0,WeatherDisplay:10.37,2013-12-21 13:20:00,
2013-12-21 07:25:00,25.6,23.3,29.84,North,0,0.0,0.0,91,0.00,OVC,,0.00,0.0,WeatherDisplay:10.37,2013-12-21 13:25:00,
2013-12-21 07:30:00,25.6,23.3,29.84,North,0,0.0,0.0,91,0.00,OVC,,0.00,0.0,WeatherDisplay:10.37,2013-12-21 13:30:00,
2013-12-21 07:35:00,25.6,23.3,29.85,North,0,0.0,0.0,91,0.00,OVC,,0.00,0.0,WeatherDisplay:10.37,2013-12-21 13:35:00,
2013-12-21 07:40:00,25.6,23.3,29.85,North,0,0.0,0.0,91,0.00,OVC,,0.00,0.0,WeatherDisplay:10.37,2013-12-21 13:40:00,
2013-12-21 07:45:00,25.6,23.3,29.83,North,0,0.0,0.0,91,0.00,OVC,,0.00,0.0,WeatherDisplay:10.37,2013-12-21 13:45:00,
2013-12-21 07:50:00,25.6,23.3,29.83,North,0,0.0,0.0,91,0.00,OVC,,0.00,0.0,WeatherDisplay:10.37,2013-12-21 13:50:00,
2013-12-21 07:55:00,25.6,23.3,29.83,North,0,0.0,0.0,91,0.00,OVC,,0.00,0.0,WeatherDisplay:10.37,2013-12-21 13:55:00,
2013-12-21 08:00:00,25.6,23.3,29.83,North,0,0.0,0.0,91,0.00,OVC,,0.00,0.0,WeatherDisplay:10.37,2013-12-21 14:00:00,
2013-12-21 08:05:00,25.6,23.3,29.84,North,0,0.0,0.0,91,0.00,OVC,,0.00,0.0,WeatherDisplay:10.37,2013-12-21 14:05:00,
2013-12-21 08:10:00,25.6,23.3,29.85,North,0,0.0,0.0,91,0.00,OVC,,0.00,0.0,WeatherDisplay:10.37,2013-12-21 14:10:00,
2013-12-21 08:15:00,25.6,23.3,29.85,North,0,0.0,0.0,91,0.00,OVC,,0.00,0.0,WeatherDisplay:10.37,2013-12-21 14:15:00,
2013-12-21 08:22:00,25.6,23.3,29.87,North,0,0.0,0.0,91,0.00,OVC,,0.00,0.0,WeatherDisplay:10.37,2013-12-21 14:22:00,
2013-12-21 08:27:00,25.6,23.3,29.87,North,0,0.0,0.0,91,0.00,OVC,,0.00,0.0,WeatherDisplay:10.37,2013-12-21 14:27:00,
2013-12-21 08:32:00,25.6,23.3,29.88,North,0,0.0,0.0,91,0.00,OVC,,0.00,0.0,WeatherDisplay:10.37,2013-12-21 14:32:00,
2013-12-21 08:37:00,25.6,23.3,29.87,North,0,0.0,0.0,91,0.00,OVC,,0.00,0.0,WeatherDisplay:10.37,2013-12-21 14:37:00,
2013-12-21 08:42:00,26.2,23.9,29.88,North,355,0.0,0.0,91,0.00,OVC,,0.00,19.8,WeatherDisplay:10.37,2013-12-21 14:42:00,
2013-12-21 08:47:00,26.2,23.9,29.89,North,355,0.0,0.0,91,0.00,OVC,,0.00,19.8,WeatherDisplay:10.37,2013-12-21 14:47:00,
2013-12-21 08:52:00,26.2,23.9,29.89,NNW,339,0.0,0.0,91,0.00,OVC,,0.00,22.3,WeatherDisplay:10.37,2013-12-21 14:52:00,
2013-12-21 08:57:00,26.2,23.9,29.88,NNW,338,0.0,0.0,91,0.00,OVC,,0.00,26.0,WeatherDisplay:10.37,2013-12-21 14:57:00,
2013-12-21 09:02:00,26.3,24.0,29.88,NNW,338,0.0,0.0,91,0.00,OVC,,0.00,32.2,WeatherDisplay:10.37,2013-12-21 15:02:00,
2013-12-21 09:07:00,26.3,24.0,29.88,NNW,338,0.0,0.0,91,0.00,OVC,,0.00,32.2,WeatherDisplay:10.37,2013-12-21 15:07:00,
2013-12-21 09:12:00,26.3,24.0,29.88,NNW,337,0.0,0.0,91,0.00,OVC,,0.00,34.7,WeatherDisplay:10.37,2013-12-21 15:12:00,
2013-12-21 09:17:00,26.3,24.0,29.88,NNW,338,0.0,0.0,91,0.00,OVC,,0.00,34.7,WeatherDisplay:10.37,2013-12-21 15:17:00,
2013-12-21 09:22:00,26.4,24.1,29.88,NNW,338,0.0,0.0,91,0.00,OVC,,0.00,34.7,WeatherDisplay:10.37,2013-12-21 15:22:00,
2013-12-21 09:27:00,26.4,24.1,29.87,NNW,338,0.0,0.0,91,0.00,OVC,,0.00,40.9,WeatherDisplay:10.37,2013-12-21 15:27:00,
2013-12-21 09:32:00,26.4,24.1,29.87,NNW,348,0.0,0.0,91,0.00,OVC,,0.00,45.9,WeatherDisplay:10.37,2013-12-21 15:32:00,
2013-12-21 09:37:00,26.5,24.2,29.87,NNW,348,0.0,0.0,91,0.00,OVC,,0.00,48.4,WeatherDisplay:10.37,2013-12-21 15:37:00,
2013-12-21 09:42:00,26.5,24.2,29.87,NNW,348,0.0,0.0,91,0.00,OVC,,0.00,52.1,WeatherDisplay:10.37,2013-12-21 15:42:00,
2013-12-21 09:47:00,26.6,24.3,29.86,NNE,32,0.0,0.0,91,0.00,OVC,,0.00,60.8,WeatherDisplay:10.37,2013-12-21 15:47:00,
2013-12-21 09:52:00,26.6,24.3,29.87,NNE,32,0.0,0.0,91,0.00,OVC,,0.00,78.1,WeatherDisplay:10.37,2013-12-21 15:52:00,
2013-12-21 09:57:00,26.7,24.4,29.88,North,355,0.0,0.0,91,0.00,OVC,,0.00,76.9,WeatherDisplay:10.37,2013-12-21 15:57:00,
2013-12-21 10:02:00,26.8,24.5,29.87,North,355,0.0,0.0,91,0.00,OVC,,0.00,76.9,WeatherDisplay:10.37,2013-12-21 16:02:00,
2013-12-21 10:07:00,26.8,24.5,29.88,North,355,0.0,0.0,91,0.00,OVC,,0.00,67.0,WeatherDisplay:10.37,2013-12-21 16:07:00,
2013-12-21 10:12:00,26.9,24.6,29.87,North,355,0.0,0.0,91,0.00,OVC,,0.00,67.0,WeatherDisplay:10.37,2013-12-21 16:12:00,
2013-12-21 10:17:00,26.9,24.6,29.86,North,355,0.0,0.0,91,0.00,OVC,,0.00,69.4,WeatherDisplay:10.37,2013-12-21 16:17:00,
2013-12-21 10:22:00,26.9,24.6,29.86,NE,46,0.0,0.0,91,0.00,OVC,,0.00,69.4,WeatherDisplay:10.37,2013-12-21 16:22:00,
2013-12-21 10:27:00,26.9,24.6,29.86,NE,48,0.0,0.0,91,0.00,OVC,,0.00,60.8,WeatherDisplay:10.37,2013-12-21 16:27:00,
2013-12-21 10:33:00,26.9,24.6,29.85,NE,49,0.0,0.0,91,0.00,OVC,,0.00,60.8,WeatherDisplay:10.37,2013-12-21 16:33:00,
2013-12-21 10:38:00,27.0,24.7,29.86,NE,53,0.0,0.0,91,0.00,OVC,,0.00,58.3,WeatherDisplay:10.37,2013-12-21 16:38:00,
2013-12-21 10:43:00,27.1,24.8,29.87,NE,55,0.0,0.0,91,0.00,OVC,,0.00,57.0,WeatherDisplay:10.37,2013-12-21 16:43:00,
2013-12-21 10:48:00,27.2,24.9,29.87,NE,51,0.0,0.0,91,0.00,OVC,,0.00,54.6,WeatherDisplay:10.37,2013-12-21 16:48:00,
2013-12-21 10:53:00,27.2,24.9,29.86,NE,42,0.0,0.0,91,0.00,OVC,,0.00,57.0,WeatherDisplay:10.37,2013-12-21 16:53:00,
2013-12-21 10:58:00,27.2,24.9,29.86,NNE,32,0.0,0.0,91,0.00,OVC,,0.00,60.8,WeatherDisplay:10.37,2013-12-21 16:58:00,
2013-12-21 11:03:00,27.3,25.0,29.87,NNE,25,0.0,0.0,91,0.00,OVC,,0.00,60.8,WeatherDisplay:10.37,2013-12-21 17:03:00,
2013-12-21 11:08:00,27.2,24.9,29.87,NNE,16,0.0,0.0,91,0.00,OVC,,0.00,63.2,WeatherDisplay:10.37,2013-12-21 17:08:00,
2013-12-21 11:13:00,27.3,25.0,29.87,NNE,16,0.0,0.0,91,0.00,OVC,,0.00,58.3,WeatherDisplay:10.37,2013-12-21 17:13:00,
2013-12-21 11:18:00,27.4,25.1,29.87,NNW,333,0.0,0.0,91,0.00,OVC,,0.00,57.0,WeatherDisplay:10.37,2013-12-21 17:18:00,
2013-12-21 11:23:00,27.5,25.2,29.88,NNW,333,0.0,0.0,91,0.00,OVC,,0.00,57.0,WeatherDisplay:10.37,2013-12-21 17:23:00,
2013-12-21 11:28:00,27.5,25.2,29.88,NNW,333,0.0,0.0,91,0.00,OVC,,0.00,57.0,WeatherDisplay:10.37,2013-12-21 17:28:00,
2013-12-21 11:33:00,27.5,25.2,29.87,NE,34,0.0,0.0,91,0.00,OVC,,0.00,57.0,WeatherDisplay:10.37,2013-12-21 17:33:00,
2013-12-21 11:38:00,27.5,25.2,29.86,North,10,0.0,0.0,91,0.00,OVC,,0.00,48.4,WeatherDisplay:10.37,2013-12-21 17:38:00,
2013-12-21 11:43:00,27.5,25.2,29.86,North,11,0.0,0.0,91,0.00,OVC,,0.00,52.1,WeatherDisplay:10.37,2013-12-21 17:43:00,
2013-12-21 11:48:00,27.5,25.2,29.86,NNE,15,0.0,0.0,91,0.00,OVC,,0.00,58.3,WeatherDisplay:10.37,2013-12-21 17:48:00,
2013-12-21 11:53:00,27.6,25.3,29.86,NNE,15,0.0,0.0,91,0.00,OVC,,0.00,52.1,WeatherDisplay:10.37,2013-12-21 17:53:00,
2013-12-21 11:58:00,27.6,25.3,29.85,North,355,0.0,0.0,91,0.00,OVC,,0.00,52.1,WeatherDisplay:10.37,2013-12-21 17:58:00,
2013-12-21 12:03:00,27.7,25.4,29.85,North,360,0.0,0.0,91,0.00,OVC,,0.00,52.1,WeatherDisplay:10.37,2013-12-21 18:03:00,
2013-12-21 12:08:00,27.6,25.3,29.86,North,360,0.0,0.0,91,0.00,OVC,,0.00,52.1,WeatherDisplay:10.37,2013-12-21 18:08:00,
2013-12-21 12:13:00,27.7,25.4,29.86,North,355,0.0,0.0,91,0.00,OVC,,0.00,52.1,WeatherDisplay:10.37,2013-12-21 18:13:00,
2013-12-21 12:18:00,27.6,25.3,29.85,North,355,0.0,0.0,91,0.00,OVC,,0.00,54.6,WeatherDisplay:10.37,2013-12-21 18:18:00,
2013-12-21 12:23:00,27.6,25.3,29.84,NNE,19,0.0,0.0,91,0.00,OVC,,0.00,52.1,WeatherDisplay:10.37,2013-12-21 18:23:00,
2013-12-21 12:28:00,27.6,25.3,29.84,NNE,19,0.0,0.0,91,0.00,OVC,,0.00,45.9,WeatherDisplay:10.37,2013-12-21 18:28:00,
2013-12-21 12:33:00,27.6,25.3,29.83,NE,36,0.0,0.0,91,0.00,OVC,,0.00,52.1,WeatherDisplay:10.37,2013-12-21 18:33:00,
2013-12-21 12:38:00,27.6,25.3,29.83,NE,40,0.0,0.0,91,0.00,OVC,,0.00,63.2,WeatherDisplay:10.37,2013-12-21 18:38:00,
2013-12-21 12:43:00,27.6,25.3,29.83,NNE,25,0.0,0.0,91,0.00,OVC,,0.00,67.0,WeatherDisplay:10.37,2013-12-21 18:43:00,
2013-12-21 12:48:00,27.7,25.4,29.82,North,355,0.0,0.0,91,0.00,OVC,,0.00,52.1,WeatherDisplay:10.37,2013-12-21 18:48:00,
2013-12-21 12:53:00,27.7,25.4,29.81,North,360,0.0,0.0,91,0.00,OVC,,0.00,58.3,WeatherDisplay:10.37,2013-12-21 18:53:00,
2013-12-21 12:58:00,27.6,25.3,29.81,NNE,18,0.0,0.0,91,0.00,OVC,,0.00,60.8,WeatherDisplay:10.37,2013-12-21 18:58:00,
2013-12-21 13:03:00,27.7,25.7,29.81,North,355,0.0,0.0,92,0.00,OVC,,0.00,60.8,WeatherDisplay:10.37,2013-12-21 19:03:00,
2013-12-21 13:08:00,27.8,25.8,29.81,NNE,14,0.0,0.0,92,0.00,OVC,,0.00,71.9,WeatherDisplay:10.37,2013-12-21 19:08:00,
2013-12-21 13:13:00,27.8,25.8,29.81,NE,42,0.0,0.0,92,0.00,OVC,,0.00,74.4,WeatherDisplay:10.37,2013-12-21 19:13:00,
2013-12-21 13:18:00,27.8,25.8,29.80,NE,44,0.0,0.0,92,0.00,OVC,,0.00,78.1,WeatherDisplay:10.37,2013-12-21 19:18:00,
2013-12-21 13:23:00,27.9,25.9,29.80,NNE,17,0.0,0.0,92,0.00,OVC,,0.00,60.8,WeatherDisplay:10.37,2013-12-21 19:23:00,
2013-12-21 13:28:00,27.8,25.8,29.80,NNE,15,0.0,0.0,92,0.00,OVC,,0.00,57.0,WeatherDisplay:10.37,2013-12-21 19:28:00,
2013-12-21 13:33:00,27.9,25.9,29.80,NNE,33,0.0,0.0,92,0.00,OVC,,0.00,57.0,WeatherDisplay:10.37,2013-12-21 19:33:00,
2013-12-21 13:38:00,27.9,25.9,29.79,NNE,17,0.0,0.0,92,0.00,OVC,,0.00,58.3,WeatherDisplay:10.37,2013-12-21 19:38:00,
2013-12-21 13:43:00,27.9,25.9,29.78,North,360,0.0,0.0,92,0.00,OVC,,0.00,67.0,WeatherDisplay:10.37,2013-12-21 19:43:00,
2013-12-21 13:48:00,27.9,25.9,29.78,North,360,0.0,0.0,92,0.00,OVC,,0.00,52.1,WeatherDisplay:10.37,2013-12-21 19:48:00,
2013-12-21 13:53:00,28.0,26.0,29.78,NNE,15,0.0,0.0,92,0.00,OVC,,0.00,45.9,WeatherDisplay:10.37,2013-12-21 19:53:00,
2013-12-21 13:58:00,27.9,25.6,29.78,NNE,13,0.0,0.0,91,0.00,OVC,,0.00,43.4,WeatherDisplay:10.37,2013-12-21 19:58:00,
2013-12-21 14:03:00,28.0,26.0,29.78,NNE,18,0.0,0.0,92,0.00,OVC,,0.00,48.4,WeatherDisplay:10.37,2013-12-21 20:03:00,
2013-12-21 14:08:00,28.0,25.7,29.77,NNE,30,0.0,0.0,91,0.00,OVC,,0.00,49.6,WeatherDisplay:10.37,2013-12-21 20:08:00,
2013-12-21 14:13:00,28.0,25.7,29.77,North,11,0.0,0.0,91,0.00,OVC,,0.00,49.6,WeatherDisplay:10.37,2013-12-21 20:13:00,
2013-12-21 14:18:00,28.1,26.1,29.77,North,349,0.0,0.0,92,0.00,OVC,,0.00,43.4,WeatherDisplay:10.37,2013-12-21 20:18:00,
2013-12-21 14:23:00,28.0,25.7,29.77,North,355,0.0,0.0,91,0.00,OVC,,0.00,39.7,WeatherDisplay:10.37,2013-12-21 20:23:00,
2013-12-21 14:28:00,28.1,25.8,29.77,North,349,0.0,0.0,91,0.00,OVC,,0.00,34.7,WeatherDisplay:10.37,2013-12-21 20:28:00,
2013-12-21 14:33:00,28.1,25.8,29.78,North,11,0.0,0.0,91,0.00,OVC,,0.00,32.2,WeatherDisplay:10.37,2013-12-21 20:33:00,
2013-12-21 14:38:00,28.0,25.7,29.79,NNE,30,0.0,0.0,91,0.00,OVC,,0.00,37.2,WeatherDisplay:10.37,2013-12-21 20:38:00,
2013-12-21 14:44:00,28.0,25.7,29.78,NNE,19,0.0,0.0,91,0.00,OVC,,0.00,40.9,WeatherDisplay:10.37,2013-12-21 20:44:00,
2013-12-21 14:49:00,28.0,25.7,29.78,NNE,22,0.0,0.0,91,0.00,OVC,,0.00,39.7,WeatherDisplay:10.37,2013-12-21 20:49:00,
2013-12-21 14:54:00,28.0,26.0,29.79,North,360,0.0,0.0,92,0.00,OVC,,0.00,31.0,WeatherDisplay:10.37,2013-12-21 20:54:00,
2013-12-21 14:59:00,28.1,26.1,29.79,NNE,17,0.0,0.0,92,0.00,OVC,,0.00,31.0,WeatherDisplay:10.37,2013-12-21 20:59:00,
2013-12-21 15:04:00,28.1,26.1,29.79,North,351,0.0,0.0,92,0.00,OVC,,0.00,23.6,WeatherDisplay:10.37,2013-12-21 21:04:00,
2013-12-21 15:09:00,28.1,26.1,29.80,NNW,344,0.0,0.0,92,0.00,OVC,,0.00,19.8,WeatherDisplay:10.37,2013-12-21 21:09:00,
2013-12-21 15:14:00,28.2,26.2,29.80,North,5,0.0,0.0,92,0.00,OVC,,0.00,17.4,WeatherDisplay:10.37,2013-12-21 21:14:00,
2013-12-21 15:19:00,28.2,26.2,29.80,NNE,21,0.0,0.0,92,0.00,OVC,,0.00,17.4,WeatherDisplay:10.37,2013-12-21 21:19:00,
2013-12-21 15:24:00,28.2,26.2,29.80,NNE,15,0.0,0.0,92,0.00,OVC,,0.00,28.5,WeatherDisplay:10.37,2013-12-21 21:24:00,
2013-12-21 15:29:00,28.3,26.3,29.80,NNW,348,0.0,0.0,92,0.00,OVC,,0.00,14.9,WeatherDisplay:10.37,2013-12-21 21:29:00,
2013-12-21 15:34:00,28.4,26.4,29.80,NNW,345,0.0,0.0,92,0.00,OVC,,0.00,14.9,WeatherDisplay:10.37,2013-12-21 21:34:00,
2013-12-21 15:39:00,28.4,26.4,29.80,NNW,348,0.0,0.0,92,0.00,OVC,,0.00,13.6,WeatherDisplay:10.37,2013-12-21 21:39:00,
2013-12-21 15:44:00,28.4,26.4,29.79,North,360,0.0,0.0,92,0.00,OVC,,0.00,13.6,WeatherDisplay:10.37,2013-12-21 21:44:00,
2013-12-21 15:49:00,28.3,26.3,29.78,NNE,15,0.0,0.0,92,0.00,OVC,,0.00,13.6,WeatherDisplay:10.37,2013-12-21 21:49:00,
2013-12-21 15:54:00,28.3,26.3,29.78,ENE,57,0.0,0.0,92,0.00,OVC,,0.00,13.6,WeatherDisplay:10.37,2013-12-21 21:54:00,
2013-12-21 15:59:00,28.3,26.3,29.78,North,360,0.0,0.0,92,0.00,OVC,,0.00,13.6,WeatherDisplay:10.37,2013-12-21 21:59:00,
2013-12-21 16:04:00,28.3,26.3,29.77,NE,41,0.0,0.0,92,0.00,OVC,,0.00,11.2,WeatherDisplay:10.37,2013-12-21 22:04:00,
2013-12-21 16:09:00,28.1,26.1,29.77,NNE,15,0.0,0.0,92,0.00,OVC,,0.00,8.7,WeatherDisplay:10.37,2013-12-21 22:09:00,
2013-12-21 16:14:00,28.1,26.1,29.76,NNE,24,0.0,0.0,92,0.00,OVC,,0.00,6.2,WeatherDisplay:10.37,2013-12-21 22:14:00,
2013-12-21 16:19:00,28.1,26.1,29.77,ENE,66,0.0,0.0,92,0.00,OVC,,0.00,0.0,WeatherDisplay:10.37,2013-12-21 22:19:00,
2013-12-21 16:24:00,28.1,26.1,29.76,NNE,24,0.0,0.0,92,0.00,OVC,,0.00,0.0,WeatherDisplay:10.37,2013-12-21 22:24:00,
2013-12-21 16:29:00,28.1,26.1,29.76,NE,37,0.0,0.0,92,0.00,OVC,,0.00,0.0,WeatherDisplay:10.37,2013-12-21 22:29:00,
2013-12-21 16:34:00,28.1,26.1,29.76,North,360,0.0,0.0,92,0.00,OVC,,0.00,0.0,WeatherDisplay:10.37,2013-12-21 22:34:00,
2013-12-21 16:39:00,28.1,26.1,29.75,North,360,0.0,0.0,92,0.00,OVC,,0.00,0.0,WeatherDisplay:10.37,2013-12-21 22:39:00,
2013-12-21 16:44:00,28.1,26.1,29.76,NE,43,0.0,0.0,92,0.00,OVC,,0.00,0.0,WeatherDisplay:10.37,2013-12-21 22:44:00,
2013-12-21 16:49:00,28.1,26.1,29.75,NNE,30,0.0,0.0,92,0.00,OVC,,0.00,0.0,WeatherDisplay:10.37,2013-12-21 22:49:00,
2013-12-21 16:54:00,28.1,26.1,29.76,NE,49,0.0,0.0,92,0.00,OVC,,0.00,0.0,WeatherDisplay:10.37,2013-12-21 22:54:00,
2013-12-21 16:59:00,28.1,26.1,29.76,ENE,76,0.0,0.0,92,0.00,OVC,,0.00,0.0,WeatherDisplay:10.37,2013-12-21 22:59:00,
2013-12-21 17:04:00,28.1,26.1,29.76,NE,55,0.0,0.0,92,0.00,CLR,,0.00,0.0,WeatherDisplay:10.37,2013-12-21 23:04:00,
2013-12-21 17:09:00,28.1,26.1,29.75,NE,37,0.0,0.0,92,0.00,CLR,,0.00,0.0,WeatherDisplay:10.37,2013-12-21 23:09:00,
2013-12-21 17:14:00,28.1,26.1,29.75,ENE,57,0.0,0.0,92,0.00,CLR,,0.00,0.0,WeatherDisplay:10.37,2013-12-21 23:14:00,
2013-12-21 17:19:00,28.1,26.1,29.76,NE,44,0.0,0.0,92,0.00,CLR,,0.00,0.0,WeatherDisplay:10.37,2013-12-21 23:19:00,
2013-12-21 17:24:00,28.2,26.2,29.76,NE,48,0.0,0.0,92,0.00,CLR,,0.00,0.0,WeatherDisplay:10.37,2013-12-21 23:24:00,
2013-12-21 17:29:00,28.2,26.2,29.76,ENE,59,0.0,0.0,92,0.00,CLR,,0.00,0.0,WeatherDisplay:10.37,2013-12-21 23:29:00,
2013-12-21 17:34:00,28.3,26.3,29.77,NE,47,0.0,0.0,92,0.00,CLR,,0.00,0.0,WeatherDisplay:10.37,2013-12-21 23:34:00,
2013-12-21 17:39:00,28.3,26.3,29.77,NNE,26,0.0,0.0,92,0.00,CLR,,0.00,0.0,WeatherDisplay:10.37,2013-12-21 23:39:00,
2013-12-21 17:44:00,28.3,26.3,29.77,North,9,0.0,0.0,92,0.00,CLR,,0.00,0.0,WeatherDisplay:10.37,2013-12-21 23:44:00,
2013-12-21 17:49:00,28.3,26.3,29.77,NNE,21,0.0,0.0,92,0.00,CLR,,0.00,0.0,WeatherDisplay:10.37,2013-12-21 23:49:00,
2013-12-21 17:54:00,28.4,26.4,29.77,NNE,28,0.0,0.0,92,0.00,CLR,,0.00,0.0,WeatherDisplay:10.37,2013-12-21 23:54:00,
2013-12-21 17:59:00,28.4,26.4,29.77,NNE,21,0.0,0.0,92,0.00,CLR,,0.00,0.0,WeatherDisplay:10.37,2013-12-21 23:59:00,
2013-12-21 18:04:00,28.5,26.5,29.77,NNE,21,0.0,0.0,92,0.00,CLR,,0.00,0.0,WeatherDisplay:10.37,2013-12-22 00:04:00,
2013-12-21 18:09:00,28.6,26.6,29.77,NNE,28,0.0,0.0,92,0.00,CLR,,0.00,0.0,WeatherDisplay:10.37,2013-12-22 00:09:00,
2013-12-21 18:14:00,28.7,26.7,29.77,NE,49,0.0,0.0,92,0.00,CLR,,0.00,0.0,WeatherDisplay:10.37,2013-12-22 00:14:00,
2013-12-21 18:19:00,28.7,26.7,29.77,NNE,24,0.0,0.0,92,0.00,CLR,,0.00,0.0,WeatherDisplay:10.37,2013-12-22 00:19:00,
2013-12-21 18:24:00,28.7,26.7,29.77,North,9,0.0,0.0,92,0.00,CLR,,0.00,0.0,WeatherDisplay:10.37,2013-12-22 00:24:00,
2013-12-21 18:29:00,28.8,26.8,29.77,NE,38,0.0,0.0,92,0.00,CLR,,0.00,0.0,WeatherDisplay:10.37,2013-12-22 00:29:00,
2013-12-21 18:34:00,28.8,26.8,29.77,NE,35,0.0,0.0,92,0.00,CLR,,0.00,0.0,WeatherDisplay:10.37,2013-12-22 00:34:00,
2013-12-21 18:39:00,28.8,26.8,29.76,North,360,0.0,0.0,92,0.00,CLR,,0.00,0.0,WeatherDisplay:10.37,2013-12-22 00:39:00,
2013-12-21 18:44:00,28.8,26.8,29.76,NNW,342,0.0,0.0,92,0.00,CLR,,0.00,0.0,WeatherDisplay:10.37,2013-12-22 00:44:00,
2013-12-21 18:49:00,28.8,26.8,29.76,North,5,0.0,0.0,92,0.00,CLR,,0.00,0.0,WeatherDisplay:10.37,2013-12-22 00:49:00,
2013-12-21 18:55:00,28.8,26.8,29.76,NE,42,0.0,0.0,92,0.00,CLR,,0.00,0.0,WeatherDisplay:10.37,2013-12-22 00:55:00,
2013-12-21 19:00:00,28.8,26.8,29.76,North,10,0.0,0.0,92,0.00,CLR,,0.00,0.0,WeatherDisplay:10.37,2013-12-22 01:00:00,
2013-12-21 19:05:00,28.9,26.9,29.76,North,360,0.0,0.0,92,0.00,CLR,,0.00,0.0,WeatherDisplay:10.37,2013-12-22 01:05:00,
2013-12-21 19:10:00,28.9,26.9,29.76,NNE,13,0.0,0.0,92,0.00,CLR,,0.00,0.0,WeatherDisplay:10.37,2013-12-22 01:10:00,
2013-12-21 19:15:00,28.9,26.9,29.77,NNE,17,0.0,0.0,92,0.00,CLR,,0.00,0.0,WeatherDisplay:10.37,2013-12-22 01:15:00,
2013-12-21 19:20:00,28.9,26.9,29.76,NNE,14,0.0,0.0,92,0.00,CLR,,0.00,0.0,WeatherDisplay:10.37,2013-12-22 01:20:00,
2013-12-21 19:25:00,29.0,27.0,29.76,North,360,0.0,0.0,92,0.00,CLR,,0.00,0.0,WeatherDisplay:10.37,2013-12-22 01:25:00,
2013-12-21 19:30:00,29.0,27.0,29.75,NNE,13,0.0,0.0,92,0.00,CLR,,0.00,0.0,WeatherDisplay:10.37,2013-12-22 01:30:00,
2013-12-21 19:35:00,29.0,27.0,29.74,NNE,22,0.0,0.0,92,0.00,CLR,,0.00,0.0,WeatherDisplay:10.37,2013-12-22 01:35:00,
2013-12-21 19:40:00,29.0,27.0,29.74,NE,37,0.0,0.0,92,0.00,CLR,,0.00,0.0,WeatherDisplay:10.37,2013-12-22 01:40:00,
2013-12-21 19:45:00,29.0,27.0,29.73,NNE,24,0.0,0.0,92,0.00,CLR,,0.00,0.0,WeatherDisplay:10.37,2013-12-22 01:45:00,
2013-12-21 19:50:00,29.0,27.0,29.71,NE,44,0.0,0.0,92,0.00,CLR,,0.00,0.0,WeatherDisplay:10.37,2013-12-22 01:50:00,
2013-12-21 19:55:00,29.0,27.0,29.70,NNE,26,0.0,0.0,92,0.00,CLR,,0.00,0.0,WeatherDisplay:10.37,2013-12-22 01:55:00,
2013-12-21 20:00:00,29.1,27.1,29.70,North,5,0.0,0.0,92,0.00,CLR,,0.00,0.0,WeatherDisplay:10.37,2013-12-22 02:00:00,
2013-12-21 20:05:00,29.1,27.1,29.71,NNE,28,0.0,0.0,92,0.00,CLR,,0.00,0.0,WeatherDisplay:10.37,2013-12-22 02:05:00,
2013-12-21 20:10:00,29.1,27.1,29.71,NE,51,0.0,0.0,92,0.00,CLR,,0.00,0.0,WeatherDisplay:10.37,2013-12-22 02:10:00,
2013-12-21 20:15:00,29.2,27.2,29.70,NNE,33,0.0,0.0,92,0.00,CLR,,0.00,0.0,WeatherDisplay:10.37,2013-12-22 02:15:00,
2013-12-21 20:20:00,29.3,27.3,29.70,NE,34,0.0,0.0,92,0.00,CLR,,0.00,0.0,WeatherDisplay:10.37,2013-12-22 02:20:00,
2013-12-21 20:25:00,29.3,27.3,29.69,North,5,0.0,0.0,92,0.00,CLR,,0.00,0.0,WeatherDisplay:10.37,2013-12-22 02:25:00,
2013-12-21 20:30:00,29.4,27.6,29.68,ENE,60,0.0,0.0,93,0.00,CLR,,0.00,0.0,WeatherDisplay:10.37,2013-12-22 02:30:00,
2013-12-21 20:35:00,29.4,27.6,29.69,NNE,26,0.0,0.0,93,0.00,CLR,,0.00,0.0,WeatherDisplay:10.37,2013-12-22 02:35:00,
2013-12-21 20:40:00,29.5,27.7,29.68,NNE,13,0.0,0.0,93,0.00,CLR,,0.00,0.0,WeatherDisplay:10.37,2013-12-22 02:40:00,
2013-12-21 20:45:00,29.6,27.8,29.69,NNE,28,0.0,0.0,93,0.00,CLR,,0.00,0.0,WeatherDisplay:10.37,2013-12-22 02:45:00,
2013-12-21 20:50:00,29.6,27.8,29.69,NNE,32,0.0,0.0,93,0.00,CLR,,0.00,0.0,WeatherDisplay:10.37,2013-12-22 02:50:00,
2013-12-21 20:55:00,29.7,27.9,29.68,NE,45,0.0,0.0,93,0.00,CLR,,0.00,0.0,WeatherDisplay:10.37,2013-12-22 02:55:00,
2013-12-21 21:00:00,29.8,28.0,29.68,NE,34,0.0,0.0,93,0.00,CLR,,0.00,0.0,WeatherDisplay:10.37,2013-12-22 03:00:00,
2013-12-21 21:05:00,29.8,28.0,29.67,ENE,60,0.0,0.0,93,0.00,CLR,,0.00,0.0,WeatherDisplay:10.37,2013-12-22 03:05:00,
2013-12-21 21:10:00,29.9,28.1,29.67,NE,44,0.0,0.0,93,0.00,CLR,,0.00,0.0,WeatherDisplay:10.37,2013-12-22 03:10:00,
2013-12-21 21:15:00,29.9,28.1,29.67,NNE,22,0.0,0.0,93,0.00,CLR,,0.00,0.0,WeatherDisplay:10.37,2013-12-22 03:15:00,
2013-12-21 21:20:00,30.0,28.2,29.67,NE,51,0.0,0.0,93,0.00,CLR,,0.00,0.0,WeatherDisplay:10.37,2013-12-22 03:20:00,
2013-12-21 21:25:00,30.1,28.3,29.67,NE,40,0.0,0.0,93,0.00,CLR,,0.00,0.0,WeatherDisplay:10.37,2013-12-22 03:25:00,
2013-12-21 21:30:00,30.1,28.3,29.66,North,10,0.0,0.0,93,0.00,CLR,,0.00,0.0,WeatherDisplay:10.37,2013-12-22 03:30:00,
2013-12-21 21:35:00,30.1,28.3,29.66,NE,36,0.0,0.0,93,0.00,CLR,,0.00,0.0,WeatherDisplay:10.37,2013-12-22 03:35:00,
2013-12-21 21:40:00,30.1,28.3,29.66,ENE,57,0.0,0.0,93,0.00,CLR,,0.00,0.0,WeatherDisplay:10.37,2013-12-22 03:40:00,
2013-12-21 21:45:00,30.2,28.4,29.67,NE,55,0.0,0.0,93,0.00,CLR,,0.00,0.0,WeatherDisplay:10.37,2013-12-22 03:45:00,
2013-12-21 21:50:00,30.2,28.4,29.67,NNE,17,0.0,0.0,93,0.00,CLR,,0.00,0.0,WeatherDisplay:10.37,2013-12-22 03:50:00,
2013-12-21 21:55:00,30.2,28.4,29.67,NNE,25,0.0,0.0,93,0.00,CLR,,0.00,0.0,WeatherDisplay:10.37,2013-12-22 03:55:00,
2013-12-21 22:00:00,30.2,28.4,29.67,NNE,30,0.0,0.0,93,0.00,CLR,,0.00,0.0,WeatherDisplay:10.37,2013-12-22 04:00:00,
2013-12-21 22:05:00,30.2,28.4,29.68,NNE,24,0.0,0.0,93,0.00,CLR,,0.00,0.0,WeatherDisplay:10.37,2013-12-22 04:05:00,
2013-12-21 22:10:00,30.2,28.4,29.68,NNE,26,0.0,0.0,93,0.00,CLR,,0.00,0.0,WeatherDisplay:10.37,2013-12-22 04:10:00,
2013-12-21 22:15:00,30.2,28.4,29.68,NE,37,0.0,0.0,93,0.00,CLR,,0.00,0.0,WeatherDisplay:10.37,2013-12-22 04:15:00,
2013-12-21 22:20:00,30.3,28.5,29.68,NE,38,0.0,0.0,93,0.00,CLR,,0.00,0.0,WeatherDisplay:10.37,2013-12-22 04:20:00,
2013-12-21 22:25:00,30.3,28.5,29.68,ENE,63,0.0,0.0,93,0.00,CLR,,0.00,0.0,WeatherDisplay:10.37,2013-12-22 04:25:00,
2013-12-21 22:30:00,30.3,28.5,29.68,NNE,26,0.0,0.0,93,0.00,CLR,,0.00,0.0,WeatherDisplay:10.37,2013-12-22 04:30:00,
2013-12-21 22:35:00,30.3,28.5,29.67,NNE,19,0.0,0.0,93,0.00,CLR,,0.00,0.0,WeatherDisplay:10.37,2013-12-22 04:35:00,
2013-12-21 22:40:00,30.4,28.6,29.67,NE,51,0.0,0.0,93,0.00,CLR,,0.00,0.0,WeatherDisplay:10.37,2013-12-22 04:40:00,
2013-12-21 22:45:00,30.4,28.6,29.67,NNE,24,0.0,0.0,93,0.00,CLR,,0.00,0.0,WeatherDisplay:10.37,2013-12-22 04:45:00,
2013-12-21 22:50:00,30.4,28.6,29.68,NNE,26,0.0,0.0,93,0.00,CLR,,0.00,0.0,WeatherDisplay:10.37,2013-12-22 04:50:00,
2013-12-21 22:55:00,30.4,28.6,29.68,NNE,26,0.0,0.0,93,0.00,CLR,,0.00,0.0,WeatherDisplay:10.37,2013-12-22 04:55:00,
2013-12-21 23:00:00,30.4,28.6,29.68,NNE,23,0.0,0.0,93,0.00,CLR,,0.00,0.0,WeatherDisplay:10.37,2013-12-22 05:00:00,
2013-12-21 23:01:00,30.4,28.6,29.68,NNE,23,0.0,0.0,93,0.00,CLR,,0.00,0.0,WeatherDisplay:10.37,2013-12-22 05:01:00,
2013-12-21 23:02:00,30.4,28.6,29.69,North,5,0.0,0.0,93,0.00,CLR,,0.00,0.0,WeatherDisplay:10.37,2013-12-22 05:02:00,
2013-12-21 23:03:00,30.4,28.6,29.69,NNE,28,0.0,0.0,93,0.00,CLR,,0.00,0.0,WeatherDisplay:10.37,2013-12-22 05:03:00,
2013-12-21 23:08:00,30.5,28.7,29.69,North,5,0.0,0.0,93,0.00,CLR,,0.00,0.0,WeatherDisplay:10.37,2013-12-22 05:08:00,
2013-12-21 23:13:00,30.5,28.7,29.70,NNE,18,0.0,0.0,93,0.00,CLR,,0.00,0.0,WeatherDisplay:10.37,2013-12-22 05:13:00,
2013-12-21 23:18:00,30.5,28.7,29.70,NNE,19,0.0,0.0,93,0.00,CLR,,0.00,0.0,WeatherDisplay:10.37,2013-12-22 05:18:00,
2013-12-21 23:23:00,30.5,28.7,29.70,NNW,348,0.0,0.0,93,0.00,CLR,,0.00,0.0,WeatherDisplay:10.37,2013-12-22 05:23:00,
2013-12-21 23:28:00,30.6,28.8,29.70,NNE,14,0.0,0.0,93,0.00,CLR,,0.00,0.0,WeatherDisplay:10.37,2013-12-22 05:28:00,
2013-12-21 23:33:00,30.6,28.8,29.70,North,355,0.0,0.0,93,0.00,CLR,,0.00,0.0,WeatherDisplay:10.37,2013-12-22 05:33:00,
2013-12-21 23:38:00,30.7,28.9,29.70,North,360,0.0,0.0,93,0.00,CLR,,0.00,0.0,WeatherDisplay:10.37,2013-12-22 05:38:00,
2013-12-21 23:43:00,30.7,28.9,29.69,NE,35,0.0,0.0,93,0.00,CLR,,0.00,0.0,WeatherDisplay:10.37,2013-12-22 05:43:00,
2013-12-21 23:48:00,30.8,29.0,29.69,North,355,0.0,0.0,93,0.01,RA,,0.01,0.0,WeatherDisplay:10.37,2013-12-22 05:48:00,
2013-12-21 23:53:00,30.8,29.0,29.69,North,360,0.0,0.0,93,0.01,RA,,0.01,0.0,WeatherDisplay:10.37,2013-12-22 05:53:00,
2013-12-21 23:58:00,30.8,29.0,29.69,North,9,0.0,0.0,93,0.01,CLR,,0.01,0.0,WeatherDisplay:10.37,2013-12-22 05:58:00,